WXM80 ListenWXM80 Stop

You find our weather info also at:

UK Metoffice

WeatherCloud

Weather Underground

Northeastern Weather Network

AWEKAS

Citizen Weather Observer Program (CWOP)

HAMweather, WeatherForYou, PWS Weather


Weather Underground History page Text

Daily Summary for January 7, 2018 Units:  English    Metric   Both
« Previous Day
Next Day »
Daily Weekly Monthly Yearly Custom
  High: Low: Average:
Temperature: 18.2 °F 6.0 °F 11.8 °F
Dew Point: 7.3 °F -2.9 °F 0.9 °F
Humidity: 68 % 50 % 61 %
Wind Speed: 10.7 mph 0.0 mph 3.9 mph
Wind Gust: 20.7 mph - -
Wind:- - West
Pressure: 30.62 in 30.36 in -
Precipitation: 0.00 in    
Historical Graphs
 
 
Tabular Data for January 7, 2018
Time Temperature Dew Point Pressure Wind Wind Speed Wind Gust Humidity Rainfall Rate (Hourly)
00:00 8.4 °F -1.3 °F 30.41 in NW 8.1 mph 10.4 mph 64 % 0.00 in
00:04 8.3 °F -1.4 °F 30.41 in West 8.7 mph 20.7 mph 64 % 0.00 in
00:07 8.3 °F -1.1 °F 30.41 in NW 9.5 mph 18.4 mph 65 % 0.00 in
00:12 8.3 °F -1.4 °F 30.41 in NNW 9.0 mph 15.0 mph 64 % 0.00 in
00:17 8.3 °F -1.1 °F 30.41 in NW 8.7 mph 17.3 mph 65 % 0.00 in
00:22 8.3 °F -1.4 °F 30.41 in NW 4.4 mph 9.2 mph 64 % 0.00 in
00:27 8.3 °F -1.1 °F 30.41 in North 7.7 mph 13.8 mph 65 % 0.00 in
00:32 8.3 °F -1.4 °F 30.41 in NW 7.2 mph 12.7 mph 64 % 0.00 in
00:38 8.3 °F -1.4 °F 30.41 in WNW 2.2 mph 10.4 mph 64 % 0.00 in
00:43 8.3 °F -1.4 °F 30.42 in West 8.9 mph 14.0 mph 64 % 0.00 in
00:44 8.3 °F -1.4 °F 30.42 in SW 9.5 mph 16.1 mph 64 % 0.00 in
00:54 8.2 °F -1.8 °F 30.42 in NW 8.4 mph 18.4 mph 63 % 0.00 in
00:56 8.2 °F -1.5 °F 30.42 in NW 8.1 mph 13.8 mph 64 % 0.00 in
01:02 8.3 °F -1.4 °F 30.42 in NW 6.9 mph 16.0 mph 64 % 0.00 in
01:04 8.3 °F -1.4 °F 30.43 in WNW 10.7 mph 17.3 mph 64 % 0.00 in
01:09 8.3 °F -1.4 °F 30.42 in WNW 5.6 mph 11.5 mph 64 % 0.00 in
01:14 8.3 °F -1.4 °F 30.42 in WNW 4.6 mph 6.0 mph 64 % 0.00 in
01:17 8.2 °F -1.5 °F 30.42 in WNW 4.0 mph 11.5 mph 64 % 0.00 in
01:20 8.2 °F -1.5 °F 30.43 in NNW 5.1 mph 10.4 mph 64 % 0.00 in
01:25 8.2 °F -1.8 °F 30.43 in NW 7.6 mph 13.8 mph 63 % 0.00 in
01:30 8.2 °F -1.8 °F 30.43 in NW 7.2 mph 11.5 mph 63 % 0.00 in
01:35 8.2 °F -1.5 °F 30.43 in North 5.2 mph 11.5 mph 64 % 0.00 in
01:40 8.2 °F -1.5 °F 30.44 in NW 4.3 mph 13.8 mph 64 % 0.00 in
01:45 8.2 °F -1.5 °F 30.44 in NNW 8.1 mph 16.1 mph 64 % 0.00 in
01:50 8.2 °F -1.5 °F 30.44 in NNW 8.9 mph 12.0 mph 64 % 0.00 in
01:56 8.2 °F -1.8 °F 30.45 in West 5.7 mph 11.5 mph 63 % 0.00 in
02:01 8.1 °F -1.9 °F 30.46 in WNW 6.3 mph 12.7 mph 63 % 0.00 in
02:06 8.1 °F -1.6 °F 30.46 in NW 7.0 mph 20.0 mph 64 % 0.00 in
02:11 8.1 °F -1.6 °F 30.46 in WNW 5.4 mph 11.5 mph 64 % 0.00 in
02:17 8.1 °F -1.6 °F 30.46 in NW 5.4 mph 6.0 mph 64 % 0.00 in
02:22 8.1 °F -1.6 °F 30.47 in NW 5.7 mph 9.0 mph 64 % 0.00 in
02:27 8.0 °F -2.0 °F 30.47 in NW 4.7 mph 9.2 mph 63 % 0.00 in
02:32 7.9 °F -2.1 °F 30.48 in North 7.9 mph 14.0 mph 63 % 0.00 in
02:37 7.9 °F -2.1 °F 30.48 in WNW 4.4 mph 11.5 mph 63 % 0.00 in
02:42 8.0 °F -1.7 °F 30.48 in NW 6.9 mph 9.2 mph 64 % 0.00 in
02:44 8.0 °F -1.7 °F 30.48 in NNW 8.6 mph 15.0 mph 64 % 0.00 in
02:49 7.9 °F -1.8 °F 30.48 in NNW 6.4 mph 12.0 mph 64 % 0.00 in
02:58 7.8 °F -1.9 °F 30.48 in NW 6.6 mph 11.5 mph 64 % 0.00 in
03:04 7.8 °F -1.9 °F 30.48 in NW 5.1 mph 11.5 mph 64 % 0.00 in
03:09 7.8 °F -1.9 °F 30.48 in NNW 6.3 mph 10.4 mph 64 % 0.00 in
03:14 7.8 °F -1.9 °F 30.48 in NNW 3.8 mph 13.8 mph 64 % 0.00 in
03:19 7.7 °F -1.6 °F 30.48 in WNW 7.4 mph 11.5 mph 65 % 0.00 in
03:22 7.7 °F -1.6 °F 30.48 in NW 5.1 mph 11.5 mph 65 % 0.00 in
03:27 7.7 °F -1.3 °F 30.48 in NW 6.9 mph 13.8 mph 66 % 0.00 in
03:33 7.6 °F -1.7 °F 30.49 in WNW 4.4 mph 11.5 mph 65 % 0.00 in
03:35 7.6 °F -1.7 °F 30.49 in NNW 7.9 mph 13.8 mph 65 % 0.00 in
03:41 7.4 °F -2.2 °F 30.49 in WNW 7.0 mph 14.0 mph 64 % 0.00 in
03:46 7.4 °F -2.2 °F 30.49 in NW 5.0 mph 10.0 mph 64 % 0.00 in
03:47 7.3 °F -2.0 °F 30.49 in NW 5.1 mph 10.4 mph 65 % 0.00 in
03:52 7.3 °F -2.0 °F 30.50 in West 4.3 mph 7.0 mph 65 % 0.00 in
03:57 7.2 °F -2.4 °F 30.50 in WNW 4.8 mph 11.5 mph 64 % 0.00 in
04:02 7.1 °F -2.5 °F 30.50 in WNW 4.4 mph 7.0 mph 64 % 0.00 in
04:08 7.1 °F -2.2 °F 30.50 in NNW 5.8 mph 11.5 mph 65 % 0.00 in
04:13 7.1 °F -2.2 °F 30.50 in WNW 4.0 mph 8.1 mph 65 % 0.00 in
04:14 7.1 °F -2.2 °F 30.50 in NW 5.2 mph 12.0 mph 65 % 0.00 in
04:19 7.1 °F -2.5 °F 30.51 in NW 5.7 mph 11.5 mph 64 % 0.00 in
04:25 7.1 °F -2.2 °F 30.51 in WNW 3.0 mph 3.5 mph 65 % 0.00 in
04:30 7.0 °F -2.3 °F 30.51 in NNW 1.3 mph 4.6 mph 65 % 0.00 in
04:35 6.9 °F -2.4 °F 30.51 in NW 5.9 mph 11.5 mph 65 % 0.00 in
04:36 6.9 °F -2.7 °F 30.51 in WNW 2.8 mph 5.8 mph 64 % 0.00 in
04:42 6.8 °F -2.5 °F 30.51 in NW 6.5 mph 9.2 mph 65 % 0.00 in
04:45 6.8 °F -2.5 °F 30.51 in West 2.2 mph 5.8 mph 65 % 0.00 in
04:51 6.7 °F -2.6 °F 30.51 in WNW 7.0 mph 12.0 mph 65 % 0.00 in
04:54 6.7 °F -2.3 °F 30.51 in North 6.4 mph 11.5 mph 66 % 0.00 in
04:59 6.7 °F -2.3 °F 30.51 in WNW 4.0 mph 11.5 mph 66 % 0.00 in
05:02 6.7 °F -2.3 °F 30.51 in WNW 5.4 mph 9.0 mph 66 % 0.00 in
05:07 6.7 °F -2.3 °F 30.52 in NNW 3.0 mph 12.7 mph 66 % 0.00 in
05:11 6.8 °F -1.8 °F 30.52 in NW 2.5 mph 6.9 mph 67 % 0.00 in
05:17 6.7 °F -1.9 °F 30.52 in NW 6.4 mph 12.7 mph 67 % 0.00 in
05:22 6.7 °F -2.6 °F 30.52 in WNW 8.2 mph 13.8 mph 65 % 0.00 in
05:28 6.7 °F -2.3 °F 30.51 in NW 4.5 mph 10.4 mph 66 % 0.00 in
05:38 6.6 °F -2.0 °F 30.53 in WNW 3.7 mph 10.4 mph 67 % 0.00 in
05:41 6.6 °F -2.0 °F 30.53 in NW 3.0 mph 12.0 mph 67 % 0.00 in
05:46 6.5 °F -2.1 °F 30.53 in NW 5.4 mph 8.1 mph 67 % 0.00 in
05:50 6.5 °F -2.1 °F 30.54 in WNW 3.5 mph 5.8 mph 67 % 0.00 in
05:55 6.5 °F -2.1 °F 30.54 in NW 2.3 mph 3.5 mph 67 % 0.00 in
06:00 6.4 °F -2.2 °F 30.53 in NW 6.5 mph 11.5 mph 67 % 0.00 in
06:05 6.3 °F -2.6 °F 30.53 in WNW 2.1 mph 5.8 mph 66 % 0.00 in
06:10 6.2 °F -2.4 °F 30.53 in NNW 5.5 mph 7.0 mph 67 % 0.00 in
06:12 6.2 °F -2.4 °F 30.53 in NW 4.0 mph 8.1 mph 67 % 0.00 in
06:17 6.1 °F -2.5 °F 30.53 in WNW 5.8 mph 10.4 mph 67 % 0.00 in
06:20 6.1 °F -2.5 °F 30.53 in NW 2.9 mph 5.8 mph 67 % 0.00 in
06:23 6.1 °F -2.2 °F 30.54 in NNW 3.6 mph 7.0 mph 68 % 0.00 in
06:28 6.1 °F -2.2 °F 30.54 in North 4.1 mph 7.0 mph 68 % 0.00 in
06:33 6.1 °F -2.2 °F 30.55 in NNW 5.7 mph 11.5 mph 68 % 0.00 in
06:38 6.2 °F -2.4 °F 30.55 in NW 5.4 mph 11.5 mph 67 % 0.00 in
06:42 6.3 °F -2.3 °F 30.55 in North 3.8 mph 8.0 mph 67 % 0.00 in
06:47 6.3 °F -2.3 °F 30.56 in WNW 5.2 mph 11.5 mph 67 % 0.00 in
06:52 6.4 °F -2.2 °F 30.56 in NW 7.0 mph 7.0 mph 67 % 0.00 in
06:54 6.4 °F -2.2 °F 30.56 in WNW 4.3 mph 6.9 mph 67 % 0.00 in
06:55 6.4 °F -2.2 °F 30.56 in NW 4.3 mph 6.9 mph 67 % 0.00 in
07:00 6.4 °F -2.2 °F 30.56 in NW 2.7 mph 4.6 mph 67 % 0.00 in
07:05 6.4 °F -2.5 °F 30.56 in NW 2.1 mph 4.6 mph 66 % 0.00 in
07:09 6.3 °F -2.6 °F 30.56 in WNW 1.9 mph 3.5 mph 66 % 0.00 in
07:11 6.3 °F -2.6 °F 30.56 in WNW 1.2 mph 3.5 mph 66 % 0.00 in
07:16 6.2 °F -2.7 °F 30.56 in WNW 1.3 mph 4.0 mph 66 % 0.00 in
07:21 6.1 °F -2.8 °F 30.56 in West 2.4 mph 8.1 mph 66 % 0.00 in
07:26 6.0 °F -2.9 °F 30.56 in NW 3.2 mph 7.0 mph 66 % 0.00 in
07:31 6.0 °F -2.6 °F 30.57 in NW 2.3 mph 4.6 mph 67 % 0.00 in
07:36 6.0 °F -2.6 °F 30.57 in NW 2.8 mph 3.5 mph 67 % 0.00 in
07:41 6.1 °F -2.5 °F 30.58 in NNW 0.5 mph 2.3 mph 67 % 0.00 in
07:47 6.2 °F -2.7 °F 30.58 in West 1.7 mph 4.6 mph 66 % 0.00 in
07:52 6.2 °F -2.7 °F 30.57 in North 2.3 mph 4.0 mph 66 % 0.00 in
07:56 6.3 °F -2.6 °F 30.57 in WNW 0.9 mph 4.6 mph 66 % 0.00 in
08:02 6.4 °F -2.5 °F 30.57 in NW 3.5 mph 5.8 mph 66 % 0.00 in
08:07 6.6 °F -2.4 °F 30.57 in West 2.4 mph 4.6 mph 66 % 0.00 in
08:12 6.7 °F -2.3 °F 30.57 in NW 3.7 mph 8.1 mph 66 % 0.00 in
08:16 6.8 °F -2.2 °F 30.57 in NNW 4.2 mph 5.8 mph 66 % 0.00 in
08:21 6.9 °F -2.1 °F 30.58 in WNW 3.4 mph 5.8 mph 66 % 0.00 in
08:26 7.1 °F -1.9 °F 30.58 in WNW 1.6 mph 6.0 mph 66 % 0.00 in
08:30 7.2 °F -1.5 °F 30.59 in NNW 4.4 mph 4.6 mph 67 % 0.00 in
08:35 7.3 °F -1.7 °F 30.59 in NNW 3.9 mph 8.1 mph 66 % 0.00 in
08:40 7.5 °F -1.5 °F 30.59 in NNW 3.4 mph 6.9 mph 66 % 0.00 in
08:45 7.7 °F -1.6 °F 30.60 in NNW 2.6 mph 4.6 mph 65 % 0.00 in
08:50 7.8 °F -1.5 °F 30.60 in NW 4.3 mph 5.0 mph 65 % 0.00 in
08:55 7.9 °F -1.4 °F 30.60 in NW 3.4 mph 8.1 mph 65 % 0.00 in
09:00 8.0 °F -1.3 °F 30.60 in NNW 3.9 mph 8.1 mph 65 % 0.00 in
09:05 8.2 °F -0.8 °F 30.60 in NNW 1.7 mph 5.8 mph 66 % 0.00 in
09:11 8.3 °F -0.7 °F 30.60 in NW 1.7 mph 6.9 mph 66 % 0.00 in
09:16 8.5 °F -0.9 °F 30.60 in West 3.9 mph 11.5 mph 65 % 0.00 in
09:21 8.7 °F -0.7 °F 30.61 in NW 4.1 mph 5.8 mph 65 % 0.00 in
09:26 8.9 °F -0.5 °F 30.61 in WNW 4.6 mph 6.9 mph 65 % 0.00 in
09:31 9.2 °F -0.5 °F 30.61 in NNW 4.3 mph 7.0 mph 64 % 0.00 in
09:34 9.4 °F -0.3 °F 30.61 in WNW 3.6 mph 6.0 mph 64 % 0.00 in
09:39 9.8 °F -0.3 °F 30.61 in WSW 4.6 mph 7.0 mph 63 % 0.00 in
09:42 9.9 °F -0.2 °F 30.61 in NW 2.5 mph 7.0 mph 63 % 0.00 in
09:47 10.2 °F -0.2 °F 30.61 in WNW 1.2 mph 5.8 mph 62 % 0.00 in
09:52 10.4 °F -0.1 °F 30.62 in West 4.7 mph 7.0 mph 62 % 0.00 in
09:57 10.7 °F 0.2 °F 30.62 in WNW 6.1 mph 8.1 mph 62 % 0.00 in
10:02 11.0 °F 0.2 °F 30.61 in NW 1.6 mph 3.5 mph 61 % 0.00 in
10:08 11.2 °F 0.0 °F 30.61 in NNW 3.4 mph 6.9 mph 60 % 0.00 in
10:13 11.3 °F 0.8 °F 30.60 in NW 2.0 mph 3.5 mph 62 % 0.00 in
10:18 11.6 °F 1.1 °F 30.61 in WSW 3.0 mph 5.8 mph 62 % 0.00 in
10:24 11.8 °F 0.9 °F 30.61 in WNW 3.7 mph 8.1 mph 61 % 0.00 in
10:27 12.0 °F 0.8 °F 30.61 in West 2.8 mph 10.4 mph 60 % 0.00 in
10:32 12.2 °F 0.2 °F 30.60 in West 2.7 mph 7.0 mph 58 % 0.00 in
10:37 12.4 °F 0.8 °F 30.61 in West 4.6 mph 8.1 mph 59 % 0.00 in
10:39 12.4 °F 0.8 °F 30.61 in West 4.1 mph 6.0 mph 59 % 0.00 in
10:44 12.5 °F 0.9 °F 30.60 in WSW 1.4 mph 4.0 mph 59 % 0.00 in
10:50 12.6 °F 1.0 °F 30.60 in WNW 3.6 mph 6.0 mph 59 % 0.00 in
10:55 12.7 °F 1.1 °F 30.59 in NW 3.6 mph 7.0 mph 59 % 0.00 in
11:00 12.8 °F 0.4 °F 30.59 in WNW 2.0 mph 7.0 mph 57 % 0.00 in
11:05 12.8 °F 0.4 °F 30.59 in NNW 6.0 mph 11.5 mph 57 % 0.00 in
11:06 12.8 °F 0.4 °F 30.59 in NW 3.5 mph 11.5 mph 57 % 0.00 in
11:09 12.7 °F 0.7 °F 30.58 in NW 1.0 mph 6.9 mph 58 % 0.00 in
11:14 12.6 °F 0.6 °F 30.57 in WNW 2.1 mph 5.0 mph 58 % 0.00 in
11:19 12.5 °F 0.5 °F 30.57 in WNW 3.6 mph 9.2 mph 58 % 0.00 in
11:24 12.4 °F 0.4 °F 30.57 in West 3.6 mph 8.1 mph 58 % 0.00 in
11:29 12.3 °F 0.3 °F 30.57 in West 1.6 mph 4.6 mph 58 % 0.00 in
11:34 12.2 °F 0.6 °F 30.56 in WSW 3.6 mph 5.8 mph 59 % 0.00 in
11:40 12.2 °F 0.2 °F 30.56 in West 2.5 mph 3.5 mph 58 % 0.00 in
11:45 12.3 °F -0.1 °F 30.56 in NW 2.8 mph 9.2 mph 57 % 0.00 in
11:50 12.3 °F 0.3 °F 30.56 in WNW 2.9 mph 6.0 mph 58 % 0.00 in
11:56 12.4 °F 0.8 °F 30.55 in WNW 5.1 mph 11.5 mph 59 % 0.00 in
12:01 12.4 °F 0.8 °F 30.56 in NW 2.2 mph 5.8 mph 59 % 0.00 in
12:06 12.5 °F 0.9 °F 30.56 in WNW 1.2 mph 2.3 mph 59 % 0.00 in
12:11 12.6 °F 1.0 °F 30.56 in WNW 5.4 mph 8.1 mph 59 % 0.00 in
12:15 12.6 °F 1.0 °F 30.55 in West 4.7 mph 7.0 mph 59 % 0.00 in
12:20 12.8 °F 1.2 °F 30.54 in NW 2.0 mph 8.1 mph 59 % 0.00 in
12:25 13.1 °F 1.4 °F 30.54 in NNW 1.3 mph 5.0 mph 59 % 0.00 in
12:30 13.4 °F 1.0 °F 30.54 in WSW 3.3 mph 5.8 mph 57 % 0.00 in
12:35 13.7 °F 1.3 °F 30.54 in West 5.0 mph 6.9 mph 57 % 0.00 in
12:40 14.0 °F 1.5 °F 30.54 in NW 5.7 mph 8.1 mph 57 % 0.00 in
12:45 14.1 °F 1.3 °F 30.55 in WNW 3.6 mph 6.0 mph 56 % 0.00 in
12:48 14.1 °F 1.3 °F 30.54 in WSW 3.6 mph 6.9 mph 56 % 0.00 in
12:54 14.5 °F 2.0 °F 30.54 in WSW 1.2 mph 9.2 mph 57 % 0.00 in
12:59 14.9 °F 2.4 °F 30.55 in West 2.7 mph 8.1 mph 57 % 0.00 in
13:04 15.1 °F 2.6 °F 30.54 in SW 6.1 mph 9.2 mph 57 % 0.00 in
13:09 15.4 °F 2.9 °F 30.54 in SW 5.6 mph 8.1 mph 57 % 0.00 in
13:14 15.6 °F 2.7 °F 30.54 in SSW 4.2 mph 6.0 mph 56 % 0.00 in
13:19 15.7 °F 2.4 °F 30.54 in West 3.5 mph 8.1 mph 55 % 0.00 in
13:25 15.9 °F 2.6 °F 30.54 in SSW 4.9 mph 9.2 mph 55 % 0.00 in
13:30 16.1 °F 2.7 °F 30.53 in SW 5.2 mph 8.1 mph 55 % 0.00 in
13:31 16.2 °F 2.8 °F 30.53 in SSW 5.6 mph 6.9 mph 55 % 0.00 in
13:36 16.4 °F 3.0 °F 30.53 in West 1.9 mph 8.0 mph 55 % 0.00 in
13:41 16.5 °F 2.7 °F 30.53 in WSW 6.5 mph 6.9 mph 54 % 0.00 in
13:47 16.7 °F 2.9 °F 30.53 in WSW 3.8 mph 10.4 mph 54 % 0.00 in
13:49 16.8 °F 2.6 °F 30.53 in SW 6.7 mph 9.2 mph 53 % 0.00 in
13:55 16.9 °F 2.3 °F 30.52 in SW 4.1 mph 6.9 mph 52 % 0.00 in
14:01 17.2 °F 2.6 °F 30.52 in SSW 3.9 mph 6.0 mph 52 % 0.00 in
14:06 17.4 °F 2.8 °F 30.52 in SW 3.9 mph 6.9 mph 52 % 0.00 in
14:11 17.4 °F 1.9 °F 30.52 in West 4.3 mph 8.1 mph 50 % 0.00 in
14:12 17.4 °F 1.9 °F 30.51 in West 2.4 mph 8.1 mph 50 % 0.00 in
14:17 17.4 °F 1.9 °F 30.51 in WSW 4.1 mph 8.1 mph 50 % 0.00 in
14:22 17.3 °F 2.2 °F 30.52 in West 0.3 mph 2.3 mph 51 % 0.00 in
14:26 17.3 °F 2.2 °F 30.51 in SW 1.4 mph 3.5 mph 51 % 0.00 in
14:31 17.1 °F 2.1 °F 30.51 in West 2.4 mph 3.5 mph 51 % 0.00 in
14:37 16.9 °F 1.9 °F 30.51 in WNW 2.4 mph 3.5 mph 51 % 0.00 in
14:40 16.7 °F 1.7 °F 30.51 in West 2.5 mph 4.0 mph 51 % 0.00 in
14:45 16.5 °F 1.5 °F 30.50 in WSW 2.5 mph 5.0 mph 51 % 0.00 in
14:50 16.3 °F 1.3 °F 30.50 in WSW 2.2 mph 3.5 mph 51 % 0.00 in
14:55 16.2 °F 1.6 °F 30.51 in West 1.8 mph 5.0 mph 52 % 0.00 in
15:00 16.2 °F 1.6 °F 30.50 in West 2.3 mph 4.6 mph 52 % 0.00 in
15:05 16.2 °F 2.0 °F 30.50 in WSW 0.4 mph 2.3 mph 53 % 0.00 in
15:10 16.2 °F 2.0 °F 30.49 in WSW 0.5 mph 4.0 mph 53 % 0.00 in
15:15 16.1 °F 1.9 °F 30.50 in WSW 0.1 mph 3.5 mph 53 % 0.00 in
15:20 16.1 °F 1.9 °F 30.49 in WSW 2.3 mph 3.5 mph 53 % 0.00 in
15:22 16.2 °F 2.0 °F 30.49 in WSW 1.6 mph 3.5 mph 53 % 0.00 in
15:27 16.2 °F 2.0 °F 30.50 in WNW 3.0 mph 4.6 mph 53 % 0.00 in
15:32 16.2 °F 2.0 °F 30.50 in West 2.2 mph 4.0 mph 53 % 0.00 in
15:38 16.2 °F 2.0 °F 30.49 in WSW 1.3 mph 2.3 mph 53 % 0.00 in
15:43 16.2 °F 2.0 °F 30.49 in West 0.7 mph 3.5 mph 53 % 0.00 in
15:48 16.2 °F 2.4 °F 30.49 in West 3.5 mph 6.9 mph 54 % 0.00 in
15:53 16.3 °F 2.1 °F 30.49 in West 2.6 mph 5.0 mph 53 % 0.00 in
15:59 16.2 °F 2.0 °F 30.49 in Calm   1.2 mph 53 % 0.00 in
16:04 16.2 °F 2.4 °F 30.49 in WSW 0.6 mph 3.5 mph 54 % 0.00 in
16:05 16.1 °F 2.4 °F 30.49 in WSW 0.2 mph 3.5 mph 54 % 0.00 in
16:10 16.1 °F 2.7 °F 30.49 in Calm     55 % 0.00 in
16:16 16.1 °F 2.7 °F 30.49 in WSW 1.0 mph 2.0 mph 55 % 0.00 in
16:21 16.1 °F 3.1 °F 30.48 in Calm     56 % 0.00 in
16:23 16.0 °F 3.0 °F 30.49 in Calm     56 % 0.00 in
16:28 15.9 °F 3.0 °F 30.48 in Calm   2.3 mph 56 % 0.00 in
16:33 15.8 °F 2.9 °F 30.49 in Calm   1.2 mph 56 % 0.00 in
16:39 15.7 °F 3.1 °F 30.48 in Calm     57 % 0.00 in
16:44 15.6 °F 3.1 °F 30.48 in Calm     57 % 0.00 in
16:49 15.5 °F 3.0 °F 30.49 in Calm     57 % 0.00 in
16:54 15.4 °F 3.2 °F 30.48 in Calm     58 % 0.00 in
16:59 15.2 °F 3.4 °F 30.48 in WSW 0.2 mph 2.0 mph 59 % 0.00 in
17:05 15.0 °F 3.6 °F 30.48 in WSW 1.9 mph 3.5 mph 60 % 0.00 in
17:09 15.0 °F 3.6 °F 30.48 in SW 2.4 mph 3.5 mph 60 % 0.00 in
17:14 14.9 °F 3.9 °F 30.48 in SSW 1.2 mph 5.8 mph 61 % 0.00 in
17:19 15.0 °F 4.0 °F 30.47 in SSW 2.1 mph 8.1 mph 61 % 0.00 in
17:25 15.0 °F 4.3 °F 30.48 in SW 1.3 mph 3.5 mph 62 % 0.00 in
17:30 15.1 °F 4.4 °F 30.48 in SSW 3.5 mph 5.0 mph 62 % 0.00 in
17:35 15.2 °F 4.5 °F 30.48 in SSW 1.2 mph 3.0 mph 62 % 0.00 in
17:40 15.2 °F 4.5 °F 30.47 in SW 0.7 mph 2.3 mph 62 % 0.00 in
17:45 15.3 °F 4.6 °F 30.47 in SW 1.3 mph 3.5 mph 62 % 0.00 in
17:47 15.3 °F 4.6 °F 30.47 in SW 2.6 mph 5.8 mph 62 % 0.00 in
17:52 15.3 °F 4.6 °F 30.46 in SW 1.8 mph 3.5 mph 62 % 0.00 in
18:02 15.3 °F 4.6 °F 30.46 in SSW 2.7 mph 5.8 mph 62 % 0.00 in
18:08 15.3 °F 4.6 °F 30.46 in SSW 2.1 mph 3.5 mph 62 % 0.00 in
18:13 15.2 °F 4.5 °F 30.46 in WSW 0.3 mph 3.5 mph 62 % 0.00 in
18:18 15.2 °F 4.5 °F 30.46 in SW 1.6 mph 3.5 mph 62 % 0.00 in
18:23 15.2 °F 4.9 °F 30.46 in SSW 2.9 mph 8.0 mph 63 % 0.00 in
18:28 15.2 °F 4.9 °F 30.46 in SW 4.3 mph 5.8 mph 63 % 0.00 in
18:34 15.2 °F 4.9 °F 30.46 in WSW 5.1 mph 8.1 mph 63 % 0.00 in
18:39 15.2 °F 4.9 °F 30.46 in SW 1.7 mph 5.8 mph 63 % 0.00 in
18:44 15.2 °F 4.9 °F 30.45 in SSW 2.8 mph 4.6 mph 63 % 0.00 in
18:49 15.2 °F 4.9 °F 30.45 in SW 1.1 mph 2.3 mph 63 % 0.00 in
18:54 15.2 °F 4.9 °F 30.44 in SW 4.5 mph 4.6 mph 63 % 0.00 in
19:00 15.2 °F 4.9 °F 30.44 in SW 4.4 mph 7.0 mph 63 % 0.00 in
19:05 15.2 °F 4.9 °F 30.44 in SW 3.9 mph 5.8 mph 63 % 0.00 in
19:10 15.3 °F 4.9 °F 30.45 in SW 1.5 mph 4.6 mph 63 % 0.00 in
19:12 15.3 °F 4.9 °F 30.45 in SSW 2.1 mph 4.0 mph 63 % 0.00 in
19:17 15.4 °F 5.0 °F 30.45 in SSW 5.2 mph 7.0 mph 63 % 0.00 in
19:23 15.5 °F 5.1 °F 30.44 in SSW 4.4 mph 10.4 mph 63 % 0.00 in
19:28 15.7 °F 5.3 °F 30.44 in SSW 4.1 mph 5.8 mph 63 % 0.00 in
19:33 15.8 °F 5.4 °F 30.44 in SW 6.6 mph 9.0 mph 63 % 0.00 in
19:38 15.9 °F 5.2 °F 30.44 in SW 2.7 mph 6.9 mph 62 % 0.00 in
19:43 16.0 °F 5.3 °F 30.43 in SW 4.3 mph 4.6 mph 62 % 0.00 in
19:48 16.1 °F 5.4 °F 30.43 in SW 3.2 mph 6.9 mph 62 % 0.00 in
19:53 16.2 °F 5.5 °F 30.43 in SW 5.4 mph 7.0 mph 62 % 0.00 in
19:58 16.2 °F 5.5 °F 30.43 in SW 3.5 mph 10.4 mph 62 % 0.00 in
20:09 16.3 °F 5.2 °F 30.43 in WSW 4.0 mph 6.9 mph 61 % 0.00 in
20:14 16.3 °F 5.2 °F 30.43 in SSW 4.0 mph 7.0 mph 61 % 0.00 in
20:19 16.3 °F 5.2 °F 30.43 in SW 6.7 mph 12.7 mph 61 % 0.00 in
20:23 16.3 °F 5.2 °F 30.42 in SW 5.0 mph 8.0 mph 61 % 0.00 in
20:33 16.3 °F 5.2 °F 30.42 in SW 3.1 mph 7.0 mph 61 % 0.00 in
20:38 16.2 °F 5.1 °F 30.42 in WSW 3.8 mph 6.9 mph 61 % 0.00 in
20:43 16.2 °F 5.5 °F 30.42 in SSW 2.3 mph 10.4 mph 62 % 0.00 in
20:48 16.2 °F 5.5 °F 30.42 in West 4.1 mph 5.8 mph 62 % 0.00 in
20:54 16.2 °F 5.1 °F 30.42 in WSW 3.8 mph 6.9 mph 61 % 0.00 in
20:59 16.2 °F 5.1 °F 30.42 in SW 5.9 mph 9.0 mph 61 % 0.00 in
21:01 16.3 °F 5.2 °F 30.42 in SW 2.6 mph 9.2 mph 61 % 0.00 in
21:06 16.4 °F 5.3 °F 30.41 in SW 2.2 mph 8.1 mph 61 % 0.00 in
21:11 16.5 °F 5.4 °F 30.40 in WSW 6.6 mph 10.4 mph 61 % 0.00 in
21:16 16.6 °F 5.5 °F 30.40 in SW 4.6 mph 9.2 mph 61 % 0.00 in
21:22 16.7 °F 5.6 °F 30.41 in WSW 5.5 mph 9.2 mph 61 % 0.00 in
21:27 16.7 °F 5.6 °F 30.40 in SW 2.7 mph 6.9 mph 61 % 0.00 in
21:32 16.8 °F 5.7 °F 30.40 in SW 4.1 mph 9.2 mph 61 % 0.00 in
21:37 16.9 °F 5.8 °F 30.40 in SW 5.5 mph 8.1 mph 61 % 0.00 in
21:43 17.0 °F 5.9 °F 30.40 in SW 0.9 mph 8.1 mph 61 % 0.00 in
21:47 17.0 °F 5.9 °F 30.40 in WSW 5.1 mph 11.5 mph 61 % 0.00 in
21:53 17.1 °F 5.9 °F 30.39 in SW 4.8 mph 7.0 mph 61 % 0.00 in
21:59 17.2 °F 6.0 °F 30.40 in SSW 3.6 mph 8.1 mph 61 % 0.00 in
22:04 17.3 °F 6.1 °F 30.40 in SW 1.8 mph 6.9 mph 61 % 0.00 in
22:09 17.4 °F 6.2 °F 30.40 in SW 5.7 mph 9.2 mph 61 % 0.00 in
22:16 17.5 °F 6.3 °F 30.40 in SSW 5.1 mph 11.5 mph 61 % 0.00 in
22:21 17.7 °F 6.9 °F 30.40 in SW 6.4 mph 13.0 mph 62 % 0.00 in
22:29 17.9 °F 7.1 °F 30.40 in SW 7.0 mph 11.5 mph 62 % 0.00 in
22:41 18.1 °F 7.3 °F 30.39 in SW 7.1 mph 14.0 mph 62 % 0.00 in
23:02 18.2 °F 7.0 °F 30.39 in SW 7.1 mph 17.3 mph 61 % 0.00 in
23:32 17.6 °F 6.4 °F 30.37 in SSW 6.7 mph 15.0 mph 61 % 0.00 in
23:48 17.6 °F 6.8 °F 30.37 in SW 4.2 mph 15.0 mph 62 % 0.00 in
23:54 17.6 °F 7.1 °F 30.36 in SSW 6.1 mph 12.7 mph 63 % 0.00 in
Crab Meadow Weather
Compliments of Weather Underground - 3 mb

Script developed by  Jim McMurry - jmcmurry@mwt.net Adapted for the template by  Wim van der Kuil - Leuven-Template.eu

Recycling: The average household throws away 13,000 separate pieces of paper each year. Most is packaging and junk mail.